[[{"header":{"parameterUnit":"m.s-1","parameterCategory":1,"la1":30.2991,"la2":30.254,"lo1":-89.0895,"lo2":-89.0444,"dy":0.0017,"dx":0.0017,"nx":28,"ny":28,"refTime":"2025-08-30T21:00:00:Z","depth":0,"parameterNumber":2,"parameterNumberName":"U-component_of_WINDS"},"data":[0,0,0,0,0,0,0,0,0,0,0,0,0,0,0,0,0,0,0,0,0,0,0,0,0,0,0,0,0,0,0,0,0,0,0,0,0,0,0,0,0,0,0,0,0,0,0,0,0,0,0,0,0,0,0,0,0,0,-0.8406,-0.8406,0,-0.8473,-0.8474,-0.8475,-0.8452,-0.8451,-0.8449,-0.8448,-0.8518,-0.8521,-0.8524,0,0,0,0,0,0,0,0,0,0,0,0,0,-0.8258,-0.8261,-0.8406,-0.8406,-0.8407,-0.8473,-0.8474,-0.8475,-0.8452,-0.8451,-0.8449,-0.8447,-0.8517,-0.8521,-0.8525,0,0,0,0,0,0,0,0,0,0,0,0,0,-0.8323,-0.8262,-0.8405,-0.8404,-0.8404,-0.8473,-0.8474,-0.8475,-0.8453,-0.845,-0.8448,-0.8446,-0.8516,-0.852,-0.8525,-0.8599,0,0,-0.854,-0.8542,0,0,0,0,0,0,0,0,-0.832,-0.8329,-0.8403,-0.8404,-0.8405,-0.8452,-0.8447,-0.8517,-0.8453,-0.8434,-0.8448,-0.8445,-0.8498,-0.8504,-0.8522,-0.8603,-0.8606,-0.854,-0.8543,-0.8545,-0.8547,0,0,0,0,0,0,0,-0.8315,-0.8326,-0.8432,-0.8404,-0.8405,-0.84,-0.8407,-0.846,-0.8478,-0.8436,-0.8434,-0.8443,-0.8498,-0.8517,-0.8523,-0.8607,-0.854,-0.8545,-0.8548,-0.855,-0.8751,-0.8753,0,0,0,0,0,0,-0.831,-0.8322,-0.843,-0.8434,-0.8356,-0.8404,-0.8412,-0.8439,-0.8477,-0.8481,-0.8444,-0.8441,-0.851,-0.8517,-0.8525,-0.8614,-0.8545,-0.855,-0.8553,-0.8749,-0.8752,-0.8754,0,0,0,0,0,0,-0.8307,-0.832,-0.8427,-0.8378,-0.8391,-0.8409,-0.844,-0.8442,-0.8461,-0.8484,-0.8487,-0.8461,-0.8508,-0.8519,-0.8581,-0.8617,-0.8552,-0.8557,-0.8746,-0.8749,-0.8753,-0.8793,0,0,0,0,0,0,-0.8303,-0.8319,-0.8347,-0.8379,-0.8394,-0.8482,-0.8442,-0.8444,-0.8469,-0.8465,-0.85,-0.8503,-0.8507,-0.8574,-0.8586,-0.8622,-0.856,-0.8743,-0.8747,-0.8752,-0.8789,-0.8798,-0.8806,0,0,0,0,0,-0.8298,-0.8356,-0.8349,-0.8362,-0.843,-0.8484,-0.8493,-0.8496,-0.8472,-0.8501,-0.8515,-0.8502,-0.861,-0.858,-0.8594,-0.8632,-0.874,-0.8746,-0.8751,-0.8785,-0.8796,-0.8805,0,0,0,0,0,0,-0.8329,-0.8361,-0.8353,-0.8423,-0.8451,-0.848,-0.8516,-0.8507,-0.8543,-0.8539,-0.8541,-0.8549,-0.8613,-0.8629,-0.8594,-0.8705,-0.8672,-0.868,-0.8693,-0.8704,-0.8712,-0.8707,-0.8564,0,0,0,0,0,-0.8344,-0.8386,-0.8411,-0.8471,-0.8485,-0.8498,-0.8522,-0.8522,-0.8551,-0.8563,-0.8582,-0.8611,-0.8651,-0.8678,-0.8717,-0.8791,-0.8798,-0.8823,-0.8832,-0.8839,-0.8846,-0.8886,-0.8897,-0.8772,-0.8772,-0.8772,0,0,-0.8377,-0.8399,-0.8425,-0.8478,-0.8499,-0.8542,-0.8508,-0.8555,-0.8587,-0.857,-0.863,-0.8645,-0.8677,-0.8746,-0.8777,-0.8761,-0.8882,-0.8846,-0.8851,-0.8855,-0.8893,-0.8904,-0.8915,-0.8776,-0.8775,-0.8775,0,0,-0.8457,-0.8477,-0.8529,-0.8551,-0.8584,-0.8592,-0.8605,-0.8635,-0.8644,-0.8704,-0.8692,-0.873,-0.88,-0.8823,-0.8844,-0.8932,-0.8921,-0.8944,-0.8989,-0.9027,-0.9037,-0.9046,-0.9077,-0.9088,-0.8952,-0.8952,-0.8952,0,-0.8492,-0.8556,-0.8557,-0.8605,-0.8629,-0.8614,-0.8667,-0.8688,-0.8732,-0.8749,-0.873,-0.8817,-0.8838,-0.8911,-0.8932,-0.895,-0.8964,-0.8941,-0.9035,-0.9044,-0.9053,-0.9082,-0.9094,-0.8954,-0.8954,-0.8954,-0.8954,0,-0.8598,-0.8643,-0.8681,-0.8723,-0.8751,-0.8801,-0.8809,-0.8837,-0.8834,-0.8845,-0.8906,-0.893,-0.8973,-0.899,-0.8988,-0.9063,-0.9052,-0.9034,-0.9001,-0.9067,-0.9095,-0.9107,-0.8958,-0.8957,-0.8956,-0.8956,0,0,-0.8702,-0.8743,-0.8757,-0.8776,-0.881,-0.8845,-0.8894,-0.8935,-0.8959,-0.8989,-0.9031,-0.9089,-0.9073,-0.9097,-0.9097,-0.9131,-0.9199,-0.9109,-0.911,-0.9125,-0.9283,-0.9296,-0.9309,-0.9191,-0.9194,-0.9195,-0.928,0,-0.8785,-0.8871,-0.8873,-0.8952,-0.8992,-0.8979,-0.9022,-0.9047,-0.9058,-0.9094,-0.9106,-0.9147,-0.9122,-0.9137,-0.917,-0.9184,-0.923,-0.9177,-0.923,-0.9232,-0.9223,-0.9324,-0.9338,-0.9417,-0.9291,-0.9293,-0.9294,0,-0.8894,-0.8927,-0.901,-0.9038,-0.9055,-0.9093,-0.9131,-0.9166,-0.9194,-0.9199,-0.9226,-0.9221,-0.927,-0.9235,-0.9303,-0.9267,-0.9289,-0.9299,-0.9302,-0.9307,-0.9267,-0.9332,-0.9442,-0.9454,-0.9311,-0.931,-0.9309,0,-0.8961,-0.9026,-0.9084,-0.91,-0.9135,-0.9162,-0.9177,-0.9204,-0.9228,-0.9261,-0.9277,-0.9315,-0.9337,-0.9367,-0.9372,-0.9345,-0.9441,-0.9406,-0.9447,-0.9447,-0.9468,-0.9467,-0.9583,-0.9481,-0.9481,-0.9481,-0.9481,0,-0.9054,-0.9105,-0.9115,-0.915,-0.9207,-0.9209,-0.9265,-0.9278,-0.9302,-0.9339,-0.933,-0.9366,-0.937,-0.9408,-0.9412,-0.9468,-0.9478,-0.9483,-0.9484,-0.9485,-0.9484,-0.9499,-0.9494,-0.9484,-0.9483,-0.9483,-0.9482,0,-0.9139,-0.9147,-0.921,-0.9236,-0.9244,-0.9285,-0.9308,-0.9342,-0.935,-0.9399,-0.941,-0.9424,-0.9467,-0.9475,-0.9526,-0.9529,-0.9596,-0.9591,-0.9586,-0.9586,-0.9626,-0.9623,-0.9757,-0.9775,-0.9661,-0.9662,-0.9663,0,-0.9198,-0.9237,-0.9268,-0.9292,-0.9309,-0.9348,-0.9373,-0.9376,-0.9402,-0.9437,-0.9467,-0.9508,-0.9542,-0.9611,-0.9626,-0.9665,-0.9661,-0.9705,-0.9667,-0.9666,-0.9662,-0.9659,-0.9663,-0.9713,-0.9714,-0.9715,-0.9716,0,-0.9302,-0.9304,-0.934,-0.9377,-0.9407,-0.9436,-0.9464,-0.9485,-0.9491,-0.9521,-0.9564,-0.959,-0.9642,-0.9683,-0.9721,-0.9737,-0.9728,-0.9728,-0.9739,-0.9741,-0.9736,-0.9739,-0.9607,-0.9725,-0.9724,-0.9723,-0.9723,-0.9723,-0.9376,-0.941,-0.9436,-0.9476,-0.9497,-0.9523,-0.9556,-0.9569,-0.9605,-0.9647,-0.9646,-0.9694,-0.9721,-0.9771,-0.9789,-0.9827,-0.9813,-0.9829,-0.9834,-0.9838,-0.9842,-0.973,-0.9834,-0.9833,-0.9833,-0.9833,-0.9833,0,-0.9479,-0.9495,-0.9532,-0.9571,-0.9603,-0.959,-0.962,-0.9647,-0.9689,-0.9715,-0.9748,-0.9797,-0.9837,-0.9855,-0.9894,-0.9921,-0.9917,-0.9931,-0.9929,-0.9933,-0.9852,-0.9838,-0.9933,-0.9933,-0.9933,-0.9933,-0.9933,-0.9933,-0.9537,-0.9593,-0.9598,-0.9664,-0.968,-0.9726,-0.9744,-0.9768,-0.9789,-0.9844,-0.9877,-0.9888,-0.9911,-0.9951,-0.9987,-0.9992,-1.0007,-1.0022,-1.0024,-0.9949,-0.9939,-0.9929,-0.9916,-1.0026,-1.0026,-1.0102,-1.0103,-1.0103]},{"header":{"parameterUnit":"m.s-1","parameterCategory":1,"la1":30.2991,"la2":30.254,"lo1":-89.0895,"lo2":-89.0444,"dy":0.0017,"dx":0.0017,"nx":28,"ny":28,"refTime":"2025-08-30T21:00:00:Z","depth":0,"parameterNumber":3,"parameterNumberName":"V-component_of_WINDS"},"data":[0,0,0,0,0,0,0,0,0,0,0,0,0,0,0,0,0,0,0,0,0,0,0,0,0,0,0,0,0,0,0,0,0,0,0,0,0,0,0,0,0,0,0,0,0,0,0,0,0,0,0,0,0,0,0,0,0,0,-3.3053,-3.3053,0,-3.3091,-3.3092,-3.3092,-3.306,-3.3059,-3.3058,-3.3056,-3.3091,-3.3093,-3.3096,0,0,0,0,0,0,0,0,0,0,0,0,0,-3.2947,-3.2949,-3.3053,-3.3053,-3.3054,-3.3091,-3.3092,-3.3092,-3.3061,-3.3059,-3.3057,-3.3056,-3.3091,-3.3093,-3.3096,0,0,0,0,0,0,0,0,0,0,0,0,0,-3.299,-3.295,-3.3053,-3.3043,-3.3042,-3.3091,-3.3092,-3.3093,-3.3061,-3.3059,-3.3057,-3.3055,-3.309,-3.3093,-3.3096,-3.3156,0,0,-3.3106,-3.3107,0,0,0,0,0,0,0,0,-3.2988,-3.2994,-3.3044,-3.3043,-3.3043,-3.3069,-3.3067,-3.3114,-3.3061,-3.3054,-3.3056,-3.3054,-3.3085,-3.3089,-3.31,-3.3158,-3.3159,-3.3106,-3.3108,-3.311,-3.3111,0,0,0,0,0,0,0,-3.2985,-3.2992,-3.3068,-3.3044,-3.3044,-3.3034,-3.3038,-3.3076,-3.308,-3.3054,-3.3052,-3.3057,-3.3085,-3.3097,-3.3101,-3.316,-3.3106,-3.3109,-3.3111,-3.3112,-3.3267,-3.3269,0,0,0,0,0,0,-3.2983,-3.299,-3.3067,-3.3069,-3.301,-3.3038,-3.3042,-3.3063,-3.3079,-3.308,-3.3059,-3.3056,-3.3093,-3.3097,-3.3102,-3.3172,-3.311,-3.3113,-3.3115,-3.3265,-3.3267,-3.327,0,0,0,0,0,0,-3.2981,-3.2991,-3.3065,-3.3029,-3.3038,-3.3042,-3.3065,-3.3064,-3.3077,-3.3083,-3.3083,-3.3071,-3.3091,-3.3097,-3.3143,-3.3173,-3.3114,-3.3117,-3.3262,-3.3266,-3.3269,-3.3314,0,0,0,0,0,0,-3.2978,-3.299,-3.3014,-3.303,-3.304,-3.3107,-3.3067,-3.3067,-3.3083,-3.3079,-3.3095,-3.3095,-3.309,-3.3138,-3.3146,-3.3176,-3.312,-3.3259,-3.3264,-3.3268,-3.331,-3.3318,-3.3326,0,0,0,0,0,-3.2975,-3.3024,-3.3015,-3.3025,-3.307,-3.3109,-3.3114,-3.3109,-3.3086,-3.3109,-3.3113,-3.3095,-3.3169,-3.3143,-3.3152,-3.3183,-3.3258,-3.3262,-3.3267,-3.3306,-3.3317,-3.3326,0,0,0,0,0,0,-3.301,-3.3026,-3.3016,-3.3073,-3.309,-3.3104,-3.3133,-3.312,-3.3143,-3.3138,-3.3129,-3.3132,-3.318,-3.3186,-3.3158,-3.3242,-3.3209,-3.3216,-3.3236,-3.3246,-3.3254,-3.3251,-3.3122,0,0,0,0,0,-3.3025,-3.3057,-3.3068,-3.3117,-3.3126,-3.3128,-3.3145,-3.3139,-3.3156,-3.3162,-3.3169,-3.3185,-3.3212,-3.3229,-3.3254,-3.3311,-3.3313,-3.3337,-3.3345,-3.3351,-3.3357,-3.3386,-3.3397,-3.3286,-3.3286,-3.3285,0,0,-3.3055,-3.3068,-3.3088,-3.3125,-3.3137,-3.3169,-3.3134,-3.3169,-3.3192,-3.3167,-3.3211,-3.3217,-3.3233,-3.3285,-3.3307,-3.3291,-3.3388,-3.3358,-3.3363,-3.3365,-3.3392,-3.3403,-3.3412,-3.3289,-3.3288,-3.3288,0,0,-3.3126,-3.314,-3.3181,-3.3195,-3.3215,-3.3216,-3.3226,-3.3242,-3.3245,-3.3289,-3.3271,-3.3297,-3.3343,-3.3356,-3.3368,-3.3444,-3.3427,-3.3452,-3.3493,-3.3522,-3.3531,-3.3538,-3.3564,-3.3574,-3.3458,-3.3458,-3.3458,0,-3.316,-3.3209,-3.3204,-3.3241,-3.3256,-3.3237,-3.3278,-3.3291,-3.3317,-3.3328,-3.331,-3.3368,-3.3378,-3.3431,-3.345,-3.3461,-3.347,-3.345,-3.353,-3.3538,-3.3545,-3.3569,-3.3579,-3.3461,-3.346,-3.346,-3.346,0,-3.325,-3.3283,-3.3314,-3.3342,-3.3362,-3.34,-3.34,-3.342,-3.3412,-3.3415,-3.3459,-3.347,-3.3497,-3.3509,-3.3502,-3.3561,-3.3551,-3.3532,-3.3498,-3.3558,-3.3581,-3.359,-3.3465,-3.3464,-3.3463,-3.3462,0,0,-3.3343,-3.3368,-3.3379,-3.3391,-3.3412,-3.3437,-3.3475,-3.3502,-3.3519,-3.3538,-3.3567,-3.3607,-3.359,-3.3604,-3.3598,-3.3623,-3.3681,-3.3601,-3.3601,-3.3614,-3.3746,-3.3759,-3.3771,-3.3671,-3.3673,-3.3674,-3.3744,0,-3.3414,-3.348,-3.3477,-3.3539,-3.3569,-3.3551,-3.3583,-3.3598,-3.3602,-3.3627,-3.3629,-3.3658,-3.3633,-3.3641,-3.3666,-3.3669,-3.3707,-3.3664,-3.3697,-3.3698,-3.3692,-3.3783,-3.3797,-3.3862,-3.3753,-3.3755,-3.3756,0,-3.3505,-3.3529,-3.3594,-3.361,-3.3622,-3.3652,-3.3676,-3.3701,-3.3717,-3.3718,-3.3734,-3.3724,-3.3759,-3.3727,-3.3775,-3.3746,-3.3759,-3.3763,-3.3765,-3.3767,-3.373,-3.3786,-3.3883,-3.3893,-3.377,-3.3769,-3.3768,0,-3.3565,-3.3613,-3.3658,-3.3669,-3.3689,-3.371,-3.3719,-3.3734,-3.375,-3.3771,-3.3782,-3.3806,-3.3819,-3.3838,-3.3834,-3.3811,-3.3883,-3.385,-3.3883,-3.3883,-3.3898,-3.3897,-3.3998,-3.3909,-3.3909,-3.3908,-3.3908,0,-3.3644,-3.3684,-3.3686,-3.3713,-3.3757,-3.3752,-3.3796,-3.3802,-3.3815,-3.3842,-3.3828,-3.3854,-3.3848,-3.3872,-3.3869,-3.3909,-3.3915,-3.3916,-3.3914,-3.3916,-3.3916,-3.3924,-3.3919,-3.3911,-3.391,-3.391,-3.3909,0,-3.3718,-3.3721,-3.3769,-3.3784,-3.3789,-3.3821,-3.3833,-3.3858,-3.3861,-3.3895,-3.3903,-3.3906,-3.3935,-3.3933,-3.3965,-3.3963,-3.4012,-3.4005,-3.4007,-3.4005,-3.4037,-3.4034,-3.4146,-3.416,-3.4063,-3.4064,-3.4065,0,-3.3768,-3.3798,-3.3818,-3.3836,-3.3847,-3.3876,-3.3893,-3.3889,-3.3907,-3.3929,-3.3951,-3.3978,-3.4,-3.4046,-3.405,-3.4075,-3.4068,-3.4106,-3.4071,-3.4072,-3.4067,-3.4065,-3.4067,-3.4112,-3.4113,-3.4114,-3.4114,0,-3.3855,-3.3855,-3.3881,-3.3908,-3.3929,-3.395,-3.3968,-3.3983,-3.3982,-3.4002,-3.4032,-3.4049,-3.4083,-3.4109,-3.4133,-3.414,-3.4126,-3.4126,-3.4134,-3.4136,-3.4135,-3.4135,-3.4023,-3.4123,-3.4122,-3.4121,-3.4121,-3.412,-3.3917,-3.3943,-3.3961,-3.3991,-3.4005,-3.4023,-3.4047,-3.4053,-3.4078,-3.4106,-3.4102,-3.4135,-3.415,-3.418,-3.419,-3.4214,-3.42,-3.4213,-3.4216,-3.4219,-3.4222,-3.4132,-3.4218,-3.4218,-3.4218,-3.4218,-3.4218,0,-3.4002,-3.4013,-3.4041,-3.4068,-3.4091,-3.4078,-3.4098,-3.4118,-3.4147,-3.4163,-3.4186,-3.4219,-3.4245,-3.4252,-3.4277,-3.4295,-3.429,-3.4302,-3.43,-3.4301,-3.4234,-3.4223,-3.4306,-3.4306,-3.4306,-3.4306,-3.4306,-3.4306,-3.4049,-3.4093,-3.4095,-3.4145,-3.4155,-3.4188,-3.42,-3.4216,-3.4229,-3.4268,-3.429,-3.4295,-3.4307,-3.4332,-3.4355,-3.4356,-3.4366,-3.438,-3.4379,-3.4315,-3.4306,-3.4298,-3.4288,-3.4382,-3.4383,-3.4444,-3.4444,-3.4445]}]]